Location: Most
(50.5330°N, 13.6500°E)
Time: 14:20:53
(UTC+01:00)

N. Korean satellite - Pass Details

Date: 29 October 2021
Orbit: 446 x 495 km, 97.3° (Epoch: 06 December)

Event Time Altitude Azimuth Distance (km) Brightness Sun altitude
Rises 06:43:51 0° 10° (N) 2,596 10.3 -11.2°
Reaches altitude 10° 06:45:57 10° 8° (N) 1,704 9.3 -10.9°
Maximum altitude 06:49:36 66° 286° (WNW) 543 6.5 -10.3°
Drops below altitude 10° 06:53:10 10° 204° (SSW) 1,669 9.1 -9.8°
Sets 06:55:12 0° 202° (SSW) 2,536 10.1 -9.4°
